[ hide orbit diagram ]
For accurate long-term ephemerides, please instead use our Horizons system.This orbit viewer was implemented using two-body methods, and hence should not be used for determining accurate long-term trajectories (over several years or decades) or planetary encounter circumstances.
Orbital Elements at Epoch 2459000.5 (2020-May-31.0) TDB
Reference: JPL 37 (heliocentric ecliptic J2000)
Element | Value | Uncertainty (1-sigma) | Units |
e | .1407446373548056 | 3.5704e-08 | |
a | 2.442952836091037 | 8.2791e-09 | au |
q | 2.099120325100511 | 8.6549e-08 | au |
i | 6.188987158208203 | 4.4378e-06 | deg |
node | 8.699769607404608 | 2.7149e-05 | deg |
peri | 291.1657149151438 | 3.0891e-05 | deg |
M | 112.1304195855934 | 1.4282e-05 | deg |
tp | 2458566.097818904484 (2019-Mar-23.59781890) | 5.5318e-05 | TDB |
period | 1394.66868823238 3.82 | 7.0898e-06 1.941e-08 | d yr |
n | .2581258208759732 | 1.3122e-09 | deg/d |
Q | 2.786785347081564 | 9.4444e-09 | au |
|
| | Orbit Determination Parameters
Additional Information
|
[ show covariance matrix ]
Physical Parameter Table
Parameter |
Symbol |
Value |
Units |
Sigma |
Reference |
Notes |
absolute magnitude |
H |
14.4 |
|
n/a |
MPO449075 |
|
diameter |
diameter |
2.792 |
km |
0.482 |
urn:nasa:pds:neowise_diameters_albedos::2.0[mainbelt] (http://adsabs.harvard.edu/abs/2011ApJ...741...68M) |
|
rotation period |
rot_per |
4.18 |
h |
n/a |
LCDB (Rev. 2020-October); Warner et al., 2009 |
Result based on less than full coverage, so that the period may be wrong by 30 percent or so. Published Reference List: [Polishook, D. (2009) Minor Planet Bull. 36, 104-107.] |
geometric albedo |
albedo |
0.359 |
|
0.129 |
urn:nasa:pds:neowise_diameters_albedos::2.0[mainbelt] (http://adsabs.harvard.edu/abs/2011ApJ...741...68M) |
|
|
17079 Lavrovsky | Discovered 1999 Apr. 17 by the Lincoln Laboratory Near-Earth Asteroid Research Team at Socorro. |
Vladislav Igorevich Lavrovsky (b. 1986) was awarded fourth place in the 2003 Intel International Science and Engineering Fair for his biochemistry project. He attends the Queen Elizabeth High School, Calgary, Alberta, Canada. |
NOTE: some special characters may not display properly (any characters within {} are an attempt to place the proper accent above a character) |
Reference: 20040614/MPCPages.arc | Last Updated: 2009-12-11 |
|
[ show close-approach data ]
|